Time,TemperatureF,DewpointF,PressureIn,WindDirection,WindDirectionDegrees,WindSpeedMPH,WindSpeedGustMPH,Humidity,HourlyPrecipIn,Conditions,Clouds,dailyrainin,SoftwareType,DateUTC
2013-09-30 00:05:00,59.9,58.0,30.03,NNE,18,0.0,0.0,94,0.00,,,0.00,weatherlink.com 1.10,2013-09-30 04:05:00,
2013-09-30 00:20:00,59.8,58.0,30.04,NNE,18,0.0,0.0,94,0.00,,,0.00,weatherlink.com 1.10,2013-09-30 04:20:00,
2013-09-30 00:35:00,59.8,58.0,30.04,NNE,18,0.0,0.0,95,0.00,,,0.00,weatherlink.com 1.10,2013-09-30 04:35:00,
2013-09-30 00:50:00,59.9,58.0,30.04,NNE,18,0.0,0.0,94,0.00,,,0.00,weatherlink.com 1.10,2013-09-30 04:50:00,
2013-09-30 01:05:00,60.1,58.0,30.04,NNE,18,0.0,0.0,94,0.00,,,0.00,weatherlink.com 1.10,2013-09-30 05:05:00,
2013-09-30 01:20:00,60.3,59.0,30.04,NNE,18,0.0,0.0,94,0.00,,,0.00,weatherlink.com 1.10,2013-09-30 05:20:00,
2013-09-30 01:36:00,60.3,59.0,30.04,NNE,18,0.0,0.0,94,0.00,,,0.00,weatherlink.com 1.10,2013-09-30 05:36:00,
2013-09-30 01:50:00,60.1,59.0,30.04,NNE,18,0.0,0.0,95,0.00,,,0.00,weatherlink.com 1.10,2013-09-30 05:50:00,
2013-09-30 02:05:00,60.0,59.0,30.04,NNE,18,0.0,0.0,95,0.00,,,0.00,weatherlink.com 1.10,2013-09-30 06:05:00,
2013-09-30 02:21:00,59.9,59.0,30.03,NNE,18,0.0,0.0,95,0.00,,,0.00,weatherlink.com 1.10,2013-09-30 06:21:00,
2013-09-30 02:36:00,59.6,58.0,30.03,NNE,18,0.0,0.0,95,0.00,,,0.00,weatherlink.com 1.10,2013-09-30 06:36:00,
2013-09-30 02:51:00,59.1,58.0,30.02,NNE,18,0.0,0.0,95,0.00,,,0.00,weatherlink.com 1.10,2013-09-30 06:51:00,
2013-09-30 03:06:00,58.6,57.0,30.02,NNE,18,0.0,0.0,95,0.00,,,0.00,weatherlink.com 1.10,2013-09-30 07:06:00,
2013-09-30 03:21:00,58.1,57.0,30.02,NNE,18,0.0,0.0,95,0.00,,,0.00,weatherlink.com 1.10,2013-09-30 07:21:00,
2013-09-30 03:36:00,57.4,56.0,30.01,NNE,18,0.0,0.0,95,0.00,,,0.00,weatherlink.com 1.10,2013-09-30 07:36:00,
2013-09-30 03:51:00,56.7,56.0,30.01,NNE,18,0.0,0.0,96,0.00,,,0.00,weatherlink.com 1.10,2013-09-30 07:51:00,
2013-09-30 04:06:00,55.8,54.0,30.01,NNE,18,0.0,0.0,95,0.00,,,0.00,weatherlink.com 1.10,2013-09-30 08:06:00,
2013-09-30 04:21:00,55.8,55.0,30.01,NNE,18,0.0,0.0,96,0.00,,,0.00,weatherlink.com 1.10,2013-09-30 08:21:00,
2013-09-30 04:36:00,55.4,54.0,30.01,NNE,18,0.0,0.0,96,0.00,,,0.00,weatherlink.com 1.10,2013-09-30 08:36:00,
2013-09-30 04:51:00,55.2,54.0,30.02,NNE,18,0.0,0.0,96,0.00,,,0.00,weatherlink.com 1.10,2013-09-30 08:51:00,
2013-09-30 05:06:00,54.8,54.0,30.02,NNE,18,0.0,0.0,96,0.00,,,0.00,weatherlink.com 1.10,2013-09-30 09:06:00,
2013-09-30 05:21:00,54.1,53.0,30.03,NNE,18,0.0,0.0,96,0.00,,,0.00,weatherlink.com 1.10,2013-09-30 09:21:00,
2013-09-30 05:36:00,53.8,53.0,30.04,NNE,18,0.0,0.0,97,0.00,,,0.00,weatherlink.com 1.10,2013-09-30 09:36:00,
2013-09-30 05:51:00,54.6,54.0,30.04,NNE,18,0.0,0.0,97,0.00,,,0.00,weatherlink.com 1.10,2013-09-30 09:51:00,
2013-09-30 06:06:00,55.6,55.0,30.04,NE,46,0.0,0.0,97,0.00,,,0.00,weatherlink.com 1.10,2013-09-30 10:06:00,
2013-09-30 06:21:00,56.1,55.0,30.05,NE,46,0.0,0.0,97,0.00,,,0.00,weatherlink.com 1.10,2013-09-30 10:21:00,
2013-09-30 06:36:00,56.3,56.0,30.05,NE,46,0.0,0.0,97,0.00,,,0.00,weatherlink.com 1.10,2013-09-30 10:36:00,
2013-09-30 06:51:00,56.4,56.0,30.06,NE,46,0.0,0.0,97,0.00,,,0.00,weatherlink.com 1.10,2013-09-30 10:51:00,
2013-09-30 07:06:00,56.6,56.0,30.06,NE,46,0.0,0.0,97,0.00,,,0.00,weatherlink.com 1.10,2013-09-30 11:06:00,
2013-09-30 07:21:00,56.6,56.0,30.06,NE,46,0.0,0.0,97,0.00,,,0.00,weatherlink.com 1.10,2013-09-30 11:21:00,
2013-09-30 07:36:00,56.6,56.0,30.06,NE,46,0.0,0.0,97,0.00,,,0.00,weatherlink.com 1.10,2013-09-30 11:36:00,
2013-09-30 07:51:00,56.6,56.0,30.07,NE,46,0.0,0.0,97,0.00,,,0.00,weatherlink.com 1.10,2013-09-30 11:51:00,
2013-09-30 08:06:00,56.7,56.0,30.07,NE,46,0.0,0.0,97,0.00,,,0.00,weatherlink.com 1.10,2013-09-30 12:06:00,
2013-09-30 08:21:00,56.7,56.0,30.07,NE,46,0.0,0.0,97,0.00,,,0.00,weatherlink.com 1.10,2013-09-30 12:21:00,
2013-09-30 08:36:00,56.9,56.0,30.07,NE,46,0.0,0.0,97,0.00,,,0.00,weatherlink.com 1.10,2013-09-30 12:36:00,
2013-09-30 08:51:00,57.3,56.0,30.08,NE,46,0.0,0.0,96,0.00,,,0.00,weatherlink.com 1.10,2013-09-30 12:51:00,
2013-09-30 09:06:00,58.7,58.0,30.07,NE,46,0.0,0.0,96,0.00,,,0.00,weatherlink.com 1.10,2013-09-30 13:06:00,
2013-09-30 09:21:00,60.9,58.0,30.07,NNW,340,0.0,0.0,91,0.00,,,0.00,weatherlink.com 1.10,2013-09-30 13:21:00,
2013-09-30 09:36:00,61.9,57.0,30.07,NW,318,0.0,0.0,85,0.00,,,0.00,weatherlink.com 1.10,2013-09-30 13:36:00,
2013-09-30 09:51:00,62.4,58.0,30.07,WNW,284,0.0,0.0,85,0.00,,,0.00,weatherlink.com 1.10,2013-09-30 13:51:00,
2013-09-30 10:06:00,64.2,58.0,30.07,WNW,284,0.0,0.0,80,0.00,,,0.00,weatherlink.com 1.10,2013-09-30 14:06:00,
2013-09-30 10:21:00,65.4,58.0,30.08,NNW,342,0.0,0.0,76,0.00,,,0.00,weatherlink.com 1.10,2013-09-30 14:21:00,
2013-09-30 10:36:00,66.5,58.0,30.07,East,80,0.0,0.0,75,0.00,,,0.00,weatherlink.com 1.10,2013-09-30 14:36:00,
2013-09-30 10:51:00,66.8,57.0,30.07,ESE,109,0.0,0.0,71,0.00,,,0.00,weatherlink.com 1.10,2013-09-30 14:51:00,
2013-09-30 11:06:00,67.2,57.0,30.06,ESE,106,0.0,0.0,71,0.00,,,0.00,weatherlink.com 1.10,2013-09-30 15:06:00,
2013-09-30 11:21:00,67.9,57.0,30.06,East,96,0.0,0.0,69,0.00,,,0.00,weatherlink.com 1.10,2013-09-30 15:21:00,
2013-09-30 11:36:00,68.3,57.0,30.06,NNW,340,0.0,0.0,67,0.00,,,0.00,weatherlink.com 1.10,2013-09-30 15:36:00,
2013-09-30 11:52:00,68.6,57.0,30.05,WSW,245,0.0,0.0,67,0.00,,,0.00,weatherlink.com 1.10,2013-09-30 15:52:00,
2013-09-30 12:07:00,69.0,58.0,30.05,West,261,0.0,0.0,68,0.00,,,0.00,weatherlink.com 1.10,2013-09-30 16:07:00,
2013-09-30 12:22:00,69.6,57.0,30.04,SW,217,0.0,0.0,65,0.00,,,0.00,weatherlink.com 1.10,2013-09-30 16:22:00,
2013-09-30 12:37:00,69.5,57.0,30.04,West,263,0.0,0.0,65,0.00,,,0.00,weatherlink.com 1.10,2013-09-30 16:37:00,
2013-09-30 12:52:00,69.6,59.0,30.04,NE,52,0.0,0.0,68,0.00,,,0.00,weatherlink.com 1.10,2013-09-30 16:52:00,
2013-09-30 13:07:00,71.3,58.0,30.03,SSW,200,0.0,0.0,64,0.00,,,0.00,weatherlink.com 1.10,2013-09-30 17:07:00,
2013-09-30 13:22:00,71.8,58.0,30.03,SW,221,0.0,0.0,63,0.00,,,0.00,weatherlink.com 1.10,2013-09-30 17:22:00,
2013-09-30 13:37:00,72.2,60.0,30.02,SSW,205,0.0,0.0,65,0.00,,,0.00,weatherlink.com 1.10,2013-09-30 17:37:00,
2013-09-30 13:52:00,71.7,56.0,30.02,ENE,65,0.0,0.0,59,0.00,,,0.00,weatherlink.com 1.10,2013-09-30 17:52:00,
2013-09-30 14:07:00,72.9,59.0,30.01,SSW,202,0.0,0.0,61,0.00,,,0.00,weatherlink.com 1.10,2013-09-30 18:07:00,
2013-09-30 14:22:00,73.6,58.0,30.00,West,279,0.0,0.0,59,0.00,,,0.00,weatherlink.com 1.10,2013-09-30 18:22:00,
2013-09-30 14:37:00,74.3,59.0,30.00,NE,40,0.0,0.0,60,0.00,,,0.00,weatherlink.com 1.10,2013-09-30 18:37:00,
2013-09-30 14:52:00,74.9,57.0,29.99,ESE,123,0.0,0.0,54,0.00,,,0.00,weatherlink.com 1.10,2013-09-30 18:52:00,
2013-09-30 15:07:00,74.3,58.0,29.99,West,281,0.0,0.0,57,0.00,,,0.00,weatherlink.com 1.10,2013-09-30 19:07:00,
2013-09-30 15:22:00,74.2,57.0,29.98,NW,324,0.0,0.0,56,0.00,,,0.00,weatherlink.com 1.10,2013-09-30 19:22:00,
2013-09-30 15:37:00,74.0,58.0,29.98,SE,124,0.0,0.0,58,0.00,,,0.00,weatherlink.com 1.10,2013-09-30 19:37:00,
2013-09-30 15:52:00,74.8,57.0,29.97,SSW,208,0.0,0.0,54,0.00,,,0.00,weatherlink.com 1.10,2013-09-30 19:52:00,
2013-09-30 16:07:00,73.1,57.0,29.97,South,175,0.0,0.0,57,0.00,,,0.00,weatherlink.com 1.10,2013-09-30 20:07:00,
2013-09-30 16:22:00,73.5,57.0,29.97,South,184,0.0,0.0,57,0.00,,,0.00,weatherlink.com 1.10,2013-09-30 20:22:00,
2013-09-30 16:37:00,73.6,57.0,29.97,SE,130,0.0,0.0,57,0.00,,,0.00,weatherlink.com 1.10,2013-09-30 20:37:00,
2013-09-30 16:52:00,74.8,57.0,29.97,SW,217,0.0,0.0,54,0.00,,,0.00,weatherlink.com 1.10,2013-09-30 20:52:00,
2013-09-30 17:07:00,75.2,59.0,29.97,East,86,0.0,0.0,57,0.00,,,0.00,weatherlink.com 1.10,2013-09-30 21:07:00,
2013-09-30 17:22:00,75.0,57.0,29.97,SE,139,0.0,0.0,54,0.00,,,0.00,weatherlink.com 1.10,2013-09-30 21:22:00,
2013-09-30 17:37:00,75.3,58.0,29.97,SSW,194,0.0,0.0,56,0.00,,,0.00,weatherlink.com 1.10,2013-09-30 21:37:00,
2013-09-30 18:07:00,74.4,59.0,29.98,SSW,192,0.0,0.0,60,0.00,,,0.00,weatherlink.com 1.10,2013-09-30 22:07:00,
2013-09-30 18:22:00,73.2,61.0,29.98,SSW,204,0.0,0.0,65,0.00,,,0.00,weatherlink.com 1.10,2013-09-30 22:22:00,
2013-09-30 18:37:00,71.3,61.0,29.98,SSW,204,0.0,0.0,71,0.00,,,0.00,weatherlink.com 1.10,2013-09-30 22:37:00,
2013-09-30 18:52:00,70.0,62.0,29.98,SSW,204,0.0,0.0,75,0.00,,,0.00,weatherlink.com 1.10,2013-09-30 22:52:00,
2013-09-30 19:07:00,69.0,62.0,29.98,SSW,204,0.0,0.0,77,0.00,,,0.00,weatherlink.com 1.10,2013-09-30 23:07:00,
2013-09-30 19:22:00,67.9,61.0,29.99,South,190,0.0,0.0,79,0.00,,,0.00,weatherlink.com 1.10,2013-09-30 23:22:00,
2013-09-30 19:37:00,66.8,61.0,29.99,South,190,0.0,0.0,81,0.00,,,0.00,weatherlink.com 1.10,2013-09-30 23:37:00,
2013-09-30 19:52:00,66.2,61.0,30.00,South,190,0.0,0.0,83,0.00,,,0.00,weatherlink.com 1.10,2013-09-30 23:52:00,
2013-09-30 20:07:00,65.4,61.0,30.00,South,181,0.0,0.0,85,0.00,,,0.00,weatherlink.com 1.10,2013-10-01 00:07:00,
2013-09-30 20:22:00,64.8,61.0,30.00,South,181,0.0,0.0,87,0.00,,,0.00,weatherlink.com 1.10,2013-10-01 00:22:00,
2013-09-30 20:38:00,64.0,60.0,30.01,South,181,0.0,0.0,88,0.00,,,0.00,weatherlink.com 1.10,2013-10-01 00:38:00,
2013-09-30 20:53:00,63.3,60.0,30.02,South,181,0.0,0.0,89,0.00,,,0.00,weatherlink.com 1.10,2013-10-01 00:53:00,
2013-09-30 21:08:00,62.4,60.0,30.02,South,181,0.0,0.0,90,0.00,,,0.00,weatherlink.com 1.10,2013-10-01 01:08:00,
2013-09-30 21:23:00,61.6,59.0,30.03,South,181,0.0,0.0,91,0.00,,,0.00,weatherlink.com 1.10,2013-10-01 01:23:00,
2013-09-30 21:38:00,61.1,59.0,30.03,South,181,0.0,0.0,92,0.00,,,0.00,weatherlink.com 1.10,2013-10-01 01:38:00,
2013-09-30 21:53:00,61.0,59.0,30.04,South,181,0.0,0.0,93,0.00,,,0.00,weatherlink.com 1.10,2013-10-01 01:53:00,
2013-09-30 22:08:00,61.1,59.0,30.04,South,181,0.0,0.0,92,0.00,,,0.00,weatherlink.com 1.10,2013-10-01 02:08:00,
2013-09-30 22:23:00,61.4,59.0,30.04,South,181,0.0,0.0,93,0.00,,,0.00,weatherlink.com 1.10,2013-10-01 02:23:00,
2013-09-30 22:38:00,62.0,60.0,30.04,South,181,0.0,0.0,92,0.00,,,0.00,weatherlink.com 1.10,2013-10-01 02:38:00,
2013-09-30 22:53:00,61.9,60.0,30.04,South,181,0.0,0.0,92,0.00,,,0.00,weatherlink.com 1.10,2013-10-01 02:53:00,
2013-09-30 23:08:00,61.6,59.0,30.04,South,181,0.0,0.0,92,0.00,,,0.00,weatherlink.com 1.10,2013-10-01 03:08:00,
2013-09-30 23:23:00,61.3,59.0,30.05,South,181,0.0,0.0,93,0.00,,,0.00,weatherlink.com 1.10,2013-10-01 03:23:00,
2013-09-30 23:38:00,61.2,59.0,30.05,South,181,0.0,0.0,93,0.00,,,0.00,weatherlink.com 1.10,2013-10-01 03:38:00,
2013-09-30 23:53:00,61.1,59.0,30.04,South,181,0.0,0.0,94,0.00,,,0.00,weatherlink.com 1.10,2013-10-01 03:53:00,